www.pogodaiklimat.ru

Погода и климат >> Архив погоды >> Вьетнам >> Куинён


ПОГОДА в Куинёне

  • Прогноз погоды в Куинёне
  • Монитор погоды в Куинёне

АРХИВ ПОГОДЫ в Куинёне

Время (UTC), дата Ветер
(напр.,м/с)
 
Видим.   Явления Облачность Т
(С)
Тd
(С)
f
(%)
Тe
(С)
Тes
(С)
Комфортность P
(гПа)
Po
(гПа)
Тmin
(С)
Tmax
(С)
R
(мм)
R24
(мм)
S
(см)
03 11.09 З 4 20 км 9/3 600 м
[Cu med, cong Cs]
+34.4 +23.2 52 +45 +51 опасность
перегрева
1011.3 1010.6
06 11.09 С 1 20 км 9/9 600 м
[Cu med, cong]
+37.0 +22.1 42 +45 +47 опасность
перегрева
1009.2 1008.5
09 11.09 Ю 1 20 км 9/6 600 м
[Cb cap Cs]
+32.6 +25.4 66 +47 +49 опасность
перегрева
1008.5 1007.8
12 11.09 СВ 1 20 км 9/3 600 м
[Cu med, cong Cs]
+31.4 +25.0 69 +45 +45 опасность
перегрева
1010.6 1009.9 +37.8
15 11.09 штиль 0 20 км 8/8 600 м
[Cb cap]
+29.4 +24.5 75 +42 +42 опасность
перегрева
1011.9 1011.2
18 11.09 С 1 20 км 9/3 1000 м
[Cb cap Cs]
+28.8 +24.5 78 +41 +41 опасность
перегрева
1010.6 1009.9
21 11.09 С 1 20 км 9/9 600 м
[Cu Sc]
+27.8 +24.2 81 +39 +39 очень
душно
1009.1 1008.4
00 12.09 штиль 0 20 км 9/3 600 м
[Cu med, cong Cs]
+28.7 +24.8 79 +41 +43 опасность
перегрева
1010.4 1009.7 +27.7
03 12.09 Ю 4 20 км 9/3 600 м
[Cb cap Cs]
+33.0 +26.2 68 +49 +56 опасность
перегрева
1010.6 1009.9
06 12.09 СВ 2 20 км 9/4 600 м
[Cb cap Cs]
+33.6 +25.8 64 +49 +59 опасность
перегрева
1007.7 1007.0
09 12.09 штиль 0 15 км слаб. ливневой дождь {гроза} 9/9 300 м
[Cb cap]
+26.2 +25.6 97 +39 +39 очень
душно
1007.1 1006.4
12 12.09 штиль 0 20 км {гроза, ливн. осадки} 9/4 600 м
[Cb cap Cs]
+26.6 +24.5 88 +37 +37 очень
душно
1008.5 1007.8 +26.4 +34.5 38
15 12.09 СВ 1 20 км гроза без осадков 9/5 600 м
[Cb cap Cs]
+26.5 +24.7 90 +38 +38 очень
душно
1009.4 1008.7
18 12.09 С 2 20 км {гроза, ливн. осадки} 9/9 600 м
[Cb cap]
+26.3 +25.1 93 +38 +38 очень
душно
1007.8 1007.1 0.0
21 12.09 З 1 20 км в посл. час ливневой дождь 9/9 600 м
[Cb cap]
+26.2 +24.4 90 +37 +37 очень
душно
1006.2 1005.5
00 13.09 С 1 15 км слаб. ливневой дождь 9/9
[Cu Sc]
+26.5 +24.3 88 +37 +37 очень
душно
1008.7 1008.0 +25.8 2
03 13.09 СЗ 3 15 км слаб. ливневой дождь {гроза} 10/10 300 м
[Cb cap]
+25.8 +24.9 95 +37 +37 очень
душно
1010.1 1009.4
06 13.09 С 2 20 км {гроза, ливн. осадки} 10/10 600 м
[Cu Sc]
+28.5 +24.5 79 +40 +40 очень
душно
1007.7 1007.0 4
09 13.09 С 3 20 км 9/9 600 м
[Cu Sc]
+28.9 +24.0 75 +40 +40 очень
душно
1006.6 1005.9
12 13.09 СЗ 1 20 км {ливн. осадки} 10/10 300 м
[Cb cap]
+27.4 +24.2 83 +38 +38 очень
душно
1008.0 1007.3 +30.4 4
15 13.09 СЗ 1 20 км 8/8 300 м
[Cb cap]
+27.0 +24.4 86 +38 +38 очень
душно
1008.4 1007.7
18 13.09 СЗ 1 20 км 9/9 300 м
[Cu Sc]
+26.6 +24.3 87 +37 +37 очень
душно
1007.2 1006.5
21 13.09 С 1 20 км 9/1 300 м
[Cu hum Cs]
+26.1 +24.3 90 +36 +36 очень
душно
1006.9 1006.2
00 14.09 С 1 20 км 9/4 1500 м
[Sc Cs]
+26.4 +25.5 95 +39 +40 очень
душно
1008.1 1007.4 +25.5
03 14.09 В 1 20 км 9/5 600 м
[Cu med, cong Cs]
+30.6 +23.3 65 +41 +50 опасность
перегрева
1008.2 1007.5
06 14.09 С 1 20 км 9/3 600 м
[Cu med, cong Cs]
+33.6 +22.5 52 +43 +56 опасность
перегрева
1007.0 1006.3
09 14.09 СВ 1 20 км 9/9 600 м
[Cu Sc]
+30.8 +23.6 66 +42 +42 опасность
перегрева
1005.7 1005.0
12 14.09 СВ 2 20 км 9/5 600 м
[Cu med, cong Cs]
+29.5 +25.1 77 +43 +43 опасность
перегрева
1007.4 1006.7 +33.8
15 14.09 С 2 20 км 9/9 600 м
[Cb cap]
+28.7 +25.8 84 +43 +43 опасность
перегрева
1008.8 1008.1
18 14.09 СЗ 1 20 км 9/4 600 м
[Cb cap Cs]
+27.3 +23.5 80 +37 +37 очень
душно
1007.7 1007.0
21 14.09 штиль 0 20 км 8/8 600 м
[Cb cap]
+27.3 +24.5 85 +39 +39 очень
душно
1007.2 1006.5
00 15.09 СВ 2 20 км 10/10 600 м
[Cu Sc]
+26.5 +25.0 91 +38 +38 очень
душно
1008.3 1007.6 +26.5
03 15.09 С 1 20 км {дождь} 9/9 600 м
[Cu Sc]
+30.8 +24.7 70 +44 +46 опасность
перегрева
1008.7 1008.0
06 15.09 С 1 20 км в посл. час дождь 9/9 600 м
[Cu Sc]
+29.7 +24.8 75 +42 +45 опасность
перегрева
1006.7 1006.0 0.1
09 15.09 СВ 3 20 км {дождь} 9/9 600 м
[Cu Sc]
+29.7 +24.4 73 +42 +42 опасность
перегрева
1005.6 1004.9
12 15.09 С 1 20 км {дождь} 9/9 600 м
[Cu Sc]
+28.6 +25.6 84 +42 +42 опасность
перегрева
1006.7 1006.0 +31.5 0.1
15 15.09 СЗ 1 20 км 9/9 600 м
[Cu Sc]
+28.1 +24.5 81 +40 +40 очень
душно
1008.2 1007.5
18 15.09 СЗ 1 20 км 9/9 600 м
[Cu Sc]
+27.8 +24.6 83 +39 +39 очень
душно
1007.2 1006.5
21 15.09 З 1 20 км 10/10 600 м
[Cu Sc]
+27.0 +23.6 82 +37 +37 очень
душно
1006.7 1006.0
00 16.09 З 1 20 км 9/9 600 м
[Cu Sc]
+26.5 +25.2 93 +38 +39 очень
душно
1008.5 1007.8 +26.0
03 16.09 С 2 20 км 9/9 300 м
[Cu med, cong]
+29.4 +23.3 70 +40 +41 очень
душно
1008.5 1007.8
06 16.09 СВ 3 20 км 9/3 600 м
[Cu med, cong Ac lent Cs]
+32.0 +23.6 61 +43 +49 опасность
перегрева
1005.6 1004.9
09 16.09 СВ 3 20 км 9/6 600 м
[Cu Sc Cs]
+30.5 +23.1 65 +41 +42 опасность
перегрева
1005.1 1004.4
12 16.09 штиль 0 20 км 9/9 600 м
[Cu Sc]
+29.0 +24.5 77 +41 +41 опасность
перегрева
1006.0 1005.3 +33.0
15 16.09 С 2 20 км 9/9 600 м
[Cb cap]
+28.1 +24.0 78 +39 +39 очень
душно
1008.2 1007.5
18 16.09 В 2 20 км {дождь} 10/10 300 м
[Cu Sc]
+26.0 +24.5 91 +36 +36 очень
душно
1007.9 1007.2 3
21 16.09 штиль 0 10 км слаб. дождь 10/10 300 м
[Cu Sc]
+25.2 +24.1 94 +35 +35 очень
душно
1007.0 1006.3
00 17.09 С 1 20 км {ливн. осадки, дождь} 9/6
[Cu Sc Cs]
+25.9 +24.4 91 +36 +37 очень
душно
1008.4 1007.7 +24.9 9
03 17.09 С 2 20 км 9/5 600 м
[Cu Sc Cs]
+30.8 +23.4 65 +42 +49 опасность
перегрева
1009.7 1009.0
06 17.09 С 2 20 км 9/5 600 м
[Cu Sc Cs]
+31.8 +23.7 62 +43 +51 опасность
перегрева
1007.7 1007.0 9
09 17.09 С 3 20 км 9/6 600 м
[Cu Sc Cs]
+31.6 +23.5 62 +42 +44 опасность
перегрева
1006.4 1005.7
12 17.09 С 1 20 км 9/9 600 м
[Cu Sc]
+29.5 +25.2 78 +43 +43 опасность
перегрева
1008.1 1007.4 +32.4 9
15 17.09 С 1 20 км 9/9 300 м
[Cu Sc]
+29.2 +25.3 80 +43 +43 опасность
перегрева
1009.1 1008.4
18 17.09 З 1 20 км 10/10 300 м
[Cu Sc]
+28.0 +24.7 82 +40 +40 очень
душно
1007.5 1006.8
21 17.09 СЗ 1 20 км 10/10 300 м
[Cu Sc]
+27.5 +25.5 89 +40 +40 очень
душно
1007.4 1006.7
00 18.09 штиль 0 20 км 9/4
[Cb cap Cs]
+27.4 +25.8 91 +41 +42 опасность
перегрева
1008.9 1008.2 +27.1

 

Местоположение метеостанции Куинён (Вьетнам): широта 13.77 долгота 109.21 высота над уровнем моря 6 м.

В архиве по умолчанию представлена погода в Куинёне за последнюю неделю. Архивные данные за месяц целиком и за предыдущие месяцы, начиная с января 2011 года, Вы можете получить, выбрав интересующий диапазон дат из раскрывающегося списка и нажав кнопку "Ввод!".


*Определитесь, кто Вы:
робот инопланетянин человек

Внимание! Время в таблицах - всемирное. Для получения местного времени необходимо прибавить поправку, которая равна 7 ч.

Смотрите также архив погоды в соседних городах и на ближайших метеорологических станциях:

Погода в Плейку (Вьетнам) (133 км)
Погода в Куангнгае (Вьетнам) (158 км)
Погода в Буонметхуоте (Вьетнам) (172 км)
Погода в Нячанге (Вьетнам) (172 км)
Погода в Дананге (Вьетнам) (272 км)
Погода в Аттапы (Лаос) (283 км)
Погода в Секонге (Лаос) (319 км)
Погода в Фантхьете (Вьетнам) (338 км)
Погода в Хюэ (Вьетнам) (344 км)
Погода в Сараване (Лаос) (370 км)

Пояснения к столбцам:

Ветер - указаны скорость ветра в м/с - средняя за 10 мин, порывы в срок и между сроками (в фигурных скобках) и направление, откуда дует ветер: С - северный, СВ - северо-восточный, В - восточный, ЮВ - юго-восточный, Ю - южный, ЮЗ - юго-западный, З - западный, СЗ - северо-западный.
Видимость - горизонтальная дальность видимости в метрах или километрах. При видимости от 1 до 10 км при отсутствии осадков обычно наблюдается дымка, при ухудшении видимости до 1 км и менее - туман. В сухую погоду видимость может ухудшаться дымом, пылью или мглою.
Явления - указаны атмосферные явления, наблюдавшиеся в срок или в последний час перед сроком; фигурными скобками обозначены явления, наблюдавшиеся между сроками (за 1-3 часа до срока); квадратными скобками обозначены град или гололедные отложения с указанием их диаметра в мм.
Облачность - указаны через наклонную черту общая и нижняя облачность в баллах и высота нижней границы облаков в метрах; квадратными скобками обозначены формы облаков: Ci - перистые, Cs - перисто-слоистые, Cc - перисто-кучевые, Ac - высококучевые, As - высокослоистые, Sc - слоисто-кучевые, Ns - слоисто-дождевые, Cu - кучевые, Cb - кучево-дождевые. Подробнее классификацию облаков см. в Атласе облаков (PDF).
T - Температура воздуха - температура, измеренная на высоте 2 м над землей.
Td - Температура точки росы - температура, при понижении до которой содержащийся в воздухе водяной пар достигнет насыщения.
f - Относительная влажность воздуха - влажноcть воздуха, измеренная на высоте 2 м над землей.
Te - Эффективная температура - температура, которую ощущает одетый по сезону человек в тени. Характеристика душности погоды. При расчете учитывается влияние влажности воздуха и скорости ветра на теплоощущения человека.
Tes - Эффективная температура на солнце - температура, которую ощущает человек, с поправкой на солнечный нагрев. Характеристика знойности погоды. Зависит от высоты солнца над горизонтом, облачности и скорости ветра. Ночью, в пасмурную погоду, а также при ветре 12 м/с и более поправка равна нулю.
P - Атмосферное давление - приведенное к уровню моря атмосферное давление.
Po - Атмосферное давление - измеренное на уровне метеостанции атмосферное давление.
Tmin - Минимальная температура - минимум температуры воздуха на высоте 2 м над землей.
Tmax - Максимальная температура - максимум температуры воздуха на высоте 2 м над землей.
R - Количество осадков - Количество выпавших осадков за период времени, мм. При наведении курсора мыши на число - период времени, за который выпало указанное количество осадков.
R24 - Количество осадков - Количество выпавших осадков за 24 часа, мм.
S - Снежный покров - Высота снежного покрова, см. При наведении курсора мыши на число - состояние снежного покрова и степень покрытия местности в баллах.